Time,TemperatureF,DewpointF,PressureIn,WindDirection,WindDirectionDegrees,WindSpeedMPH,WindSpeedGustMPH,Humidity,HourlyPrecipIn,Conditions,Clouds,dailyrainin,SoftwareType,DateUTC
2013-01-29 00:00:00,-11.0,-25.0,-100.00,ENE,63,9.0,19.0,49,0.00,,,0.00,,2013-01-29 09:00:00,
2013-01-29 00:32:00,-11.0,-25.0,-100.00,ENE,63,9.0,19.0,49,0.00,,,0.00,,2013-01-29 09:32:00,
2013-01-29 00:42:00,-11.0,-25.0,-100.00,ENE,63,9.0,19.0,49,0.00,,,0.00,,2013-01-29 09:42:00,
2013-01-29 00:52:00,-11.0,-25.0,-100.00,ENE,63,9.0,19.0,49,0.00,,,0.00,,2013-01-29 09:52:00,
2013-01-29 01:00:00,-11.0,-26.0,-100.00,NE,55,9.0,21.0,46,0.00,,,0.00,,2013-01-29 10:00:00,
2013-01-29 01:32:00,-11.0,-26.0,-100.00,NE,55,9.0,21.0,46,0.00,,,0.00,,2013-01-29 10:32:00,
2013-01-29 01:42:00,-11.0,-26.0,-100.00,NE,55,9.0,21.0,46,0.00,,,0.00,,2013-01-29 10:42:00,
2013-01-29 01:52:00,-11.0,-26.0,-100.00,NE,55,9.0,21.0,46,0.00,,,0.00,,2013-01-29 10:52:00,
2013-01-29 02:00:00,-11.0,-27.0,-100.00,NE,48,8.0,22.0,44,0.00,,,0.00,,2013-01-29 11:00:00,
2013-01-29 02:32:00,-11.0,-27.0,-100.00,NE,48,8.0,22.0,44,0.00,,,0.00,,2013-01-29 11:32:00,
2013-01-29 02:42:00,-11.0,-27.0,-100.00,NE,48,8.0,22.0,44,0.00,,,0.00,,2013-01-29 11:42:00,
2013-01-29 02:52:00,-11.0,-27.0,-100.00,NE,48,8.0,22.0,44,0.00,,,0.00,,2013-01-29 11:52:00,
2013-01-29 03:00:00,-11.0,-27.0,-100.00,ENE,73,10.0,23.0,45,0.00,,,-99.99,,2013-01-29 12:00:00,
2013-01-29 03:33:00,-11.0,-27.0,-100.00,ENE,73,10.0,23.0,45,0.00,,,-99.99,,2013-01-29 12:33:00,
2013-01-29 03:43:00,-11.0,-27.0,-100.00,ENE,73,10.0,23.0,45,0.00,,,-99.99,,2013-01-29 12:43:00,
2013-01-29 03:52:00,-11.0,-27.0,-100.00,ENE,73,10.0,23.0,45,0.00,,,-99.99,,2013-01-29 12:52:00,
2013-01-29 04:00:00,-10.0,-27.0,-100.00,ENE,76,8.0,22.0,42,0.00,,,0.00,,2013-01-29 13:00:00,
2013-01-29 04:32:00,-10.0,-27.0,-100.00,ENE,76,8.0,22.0,42,0.00,,,0.00,,2013-01-29 13:32:00,
2013-01-29 04:43:00,-10.0,-27.0,-100.00,ENE,76,8.0,22.0,42,0.00,,,0.00,,2013-01-29 13:43:00,
2013-01-29 04:52:00,-10.0,-27.0,-100.00,ENE,76,8.0,22.0,42,0.00,,,0.00,,2013-01-29 13:52:00,
2013-01-29 05:00:00,-11.0,-27.0,-100.00,ENE,67,8.0,19.0,43,0.00,,,0.00,,2013-01-29 14:00:00,
2013-01-29 05:33:00,-11.0,-27.0,-100.00,ENE,67,8.0,19.0,43,0.00,,,0.00,,2013-01-29 14:33:00,
2013-01-29 05:43:00,-11.0,-27.0,-100.00,ENE,67,8.0,19.0,43,0.00,,,0.00,,2013-01-29 14:43:00,
2013-01-29 05:52:00,-11.0,-27.0,-100.00,ENE,67,8.0,19.0,43,0.00,,,0.00,,2013-01-29 14:52:00,
2013-01-29 06:00:00,-11.0,-28.0,-100.00,NE,49,8.0,18.0,41,0.00,,,0.00,,2013-01-29 15:00:00,
2013-01-29 06:33:00,-11.0,-28.0,-100.00,NE,49,8.0,18.0,41,0.00,,,0.00,,2013-01-29 15:33:00,
2013-01-29 06:43:00,-11.0,-28.0,-100.00,NE,49,8.0,18.0,41,0.00,,,0.00,,2013-01-29 15:43:00,
2013-01-29 06:53:00,-11.0,-28.0,-100.00,NE,49,8.0,18.0,41,0.00,,,0.00,,2013-01-29 15:53:00,
2013-01-29 07:00:00,-10.0,-28.0,-100.00,NE,46,7.0,17.0,40,0.00,,,0.00,,2013-01-29 16:00:00,
2013-01-29 07:33:00,-10.0,-28.0,-100.00,NE,46,7.0,17.0,40,0.00,,,0.00,,2013-01-29 16:33:00,
2013-01-29 07:43:00,-10.0,-28.0,-100.00,NE,46,7.0,17.0,40,0.00,,,0.00,,2013-01-29 16:43:00,
2013-01-29 07:53:00,-10.0,-28.0,-100.00,NE,46,7.0,17.0,40,0.00,,,0.00,,2013-01-29 16:53:00,
2013-01-29 08:00:00,-9.0,-28.0,-100.00,NE,36,6.0,17.0,38,0.00,,,0.00,,2013-01-29 17:00:00,
2013-01-29 08:33:00,-9.0,-28.0,-100.00,NE,36,6.0,17.0,38,0.00,,,0.00,,2013-01-29 17:33:00,
2013-01-29 08:42:00,-9.0,-28.0,-100.00,NE,36,6.0,17.0,38,0.00,,,0.00,,2013-01-29 17:42:00,
2013-01-29 08:52:00,-9.0,-28.0,-100.00,NE,36,6.0,17.0,38,0.00,,,0.00,,2013-01-29 17:52:00,
2013-01-29 09:00:00,-9.0,-28.0,-100.00,NE,41,6.0,15.0,38,0.00,,,0.00,,2013-01-29 18:00:00,
2013-01-29 09:33:00,-9.0,-28.0,-100.00,NE,41,6.0,15.0,38,0.00,,,0.00,,2013-01-29 18:33:00,
2013-01-29 09:42:00,-9.0,-28.0,-100.00,NE,41,6.0,15.0,38,0.00,,,0.00,,2013-01-29 18:42:00,
2013-01-29 09:52:00,-9.0,-28.0,-100.00,NE,41,6.0,15.0,38,0.00,,,0.00,,2013-01-29 18:52:00,
2013-01-29 10:00:00,-9.0,-28.0,-100.00,ENE,57,6.0,12.0,38,0.00,,,0.00,,2013-01-29 19:00:00,
2013-01-29 10:33:00,-9.0,-28.0,-100.00,ENE,57,6.0,12.0,38,0.00,,,0.00,,2013-01-29 19:33:00,
2013-01-29 10:42:00,-9.0,-28.0,-100.00,ENE,57,6.0,12.0,38,0.00,,,0.00,,2013-01-29 19:42:00,
2013-01-29 10:52:00,-9.0,-28.0,-100.00,ENE,57,6.0,12.0,38,0.00,,,0.00,,2013-01-29 19:52:00,
2013-01-29 11:00:00,-7.0,-27.0,-100.00,NE,55,4.0,13.0,37,0.00,,,0.00,,2013-01-29 20:00:00,
2013-01-29 11:33:00,-7.0,-27.0,-100.00,NE,55,4.0,13.0,37,0.00,,,0.00,,2013-01-29 20:33:00,
2013-01-29 11:42:00,-7.0,-27.0,-100.00,NE,55,4.0,13.0,37,0.00,,,0.00,,2013-01-29 20:42:00,
2013-01-29 11:53:00,-7.0,-27.0,-100.00,NE,55,4.0,13.0,37,0.00,,,0.00,,2013-01-29 20:53:00,
2013-01-29 12:00:00,-8.0,-27.0,-100.00,NE,56,6.0,15.0,37,0.00,,,0.00,,2013-01-29 21:00:00,
2013-01-29 12:34:00,-8.0,-27.0,-100.00,NE,56,6.0,15.0,37,0.00,,,0.00,,2013-01-29 21:34:00,
2013-01-29 12:42:00,-8.0,-27.0,-100.00,NE,56,6.0,15.0,37,0.00,,,0.00,,2013-01-29 21:42:00,
2013-01-29 12:52:00,-8.0,-27.0,-100.00,NE,56,6.0,15.0,37,0.00,,,0.00,,2013-01-29 21:52:00,
2013-01-29 13:00:00,-7.0,-28.0,-100.00,NE,56,4.0,14.0,35,0.00,,,0.00,,2013-01-29 22:00:00,
2013-01-29 13:33:00,-7.0,-28.0,-100.00,NE,56,4.0,14.0,35,0.00,,,0.00,,2013-01-29 22:33:00,
2013-01-29 13:42:00,-7.0,-28.0,-100.00,NE,56,4.0,14.0,35,0.00,,,0.00,,2013-01-29 22:42:00,
2013-01-29 13:53:00,-7.0,-28.0,-100.00,NE,56,4.0,14.0,35,0.00,,,0.00,,2013-01-29 22:53:00,
2013-01-29 14:00:00,-8.0,-27.0,-100.00,ENE,61,3.0,9.0,38,0.00,,,0.00,,2013-01-29 23:00:00,
2013-01-29 14:33:00,-8.0,-27.0,-100.00,ENE,61,3.0,9.0,38,0.00,,,0.00,,2013-01-29 23:33:00,
2013-01-29 14:42:00,-8.0,-27.0,-100.00,ENE,61,3.0,9.0,38,0.00,,,0.00,,2013-01-29 23:42:00,
2013-01-29 14:53:00,-8.0,-27.0,-100.00,ENE,61,3.0,9.0,38,0.00,,,0.00,,2013-01-29 23:53:00,
2013-01-29 15:00:00,-8.0,-26.0,-100.00,ENE,61,3.0,9.0,39,0.00,,,0.00,,2013-01-30 00:00:00,
2013-01-29 15:33:00,-8.0,-26.0,-100.00,ENE,61,3.0,9.0,39,0.00,,,0.00,,2013-01-30 00:33:00,
2013-01-29 15:43:00,-8.0,-26.0,-100.00,ENE,61,3.0,9.0,39,0.00,,,0.00,,2013-01-30 00:43:00,
2013-01-29 15:52:00,-8.0,-26.0,-100.00,ENE,61,3.0,9.0,39,0.00,,,0.00,,2013-01-30 00:52:00,
2013-01-29 16:00:00,-10.0,-27.0,-100.00,NE,52,4.0,8.0,41,0.00,,,0.00,,2013-01-30 01:00:00,
2013-01-29 16:32:00,-10.0,-27.0,-100.00,NE,52,4.0,8.0,41,0.00,,,0.00,,2013-01-30 01:32:00,
2013-01-29 16:42:00,-10.0,-27.0,-100.00,NE,52,4.0,8.0,41,0.00,,,0.00,,2013-01-30 01:42:00,
2013-01-29 16:52:00,-10.0,-27.0,-100.00,NE,52,4.0,8.0,41,0.00,,,0.00,,2013-01-30 01:52:00,
2013-01-29 17:00:00,-9.0,-27.0,-100.00,NE,52,4.0,9.0,40,0.00,,,0.00,,2013-01-30 02:00:00,
2013-01-29 17:33:00,-9.0,-27.0,-100.00,NE,52,4.0,9.0,40,0.00,,,0.00,,2013-01-30 02:33:00,
2013-01-29 17:42:00,-9.0,-27.0,-100.00,NE,52,4.0,9.0,40,0.00,,,0.00,,2013-01-30 02:42:00,
2013-01-29 17:53:00,-9.0,-27.0,-100.00,NE,52,4.0,9.0,40,0.00,,,0.00,,2013-01-30 02:53:00,
2013-01-29 18:00:00,-9.0,-27.0,-100.00,NE,49,5.0,11.0,40,0.00,,,0.00,,2013-01-30 03:00:00,
2013-01-29 18:32:00,-9.0,-27.0,-100.00,NE,49,5.0,11.0,40,0.00,,,0.00,,2013-01-30 03:32:00,
2013-01-29 18:42:00,-9.0,-27.0,-100.00,NE,49,5.0,11.0,40,0.00,,,0.00,,2013-01-30 03:42:00,
2013-01-29 18:52:00,-9.0,-27.0,-100.00,NE,49,5.0,11.0,40,0.00,,,0.00,,2013-01-30 03:52:00,
2013-01-29 19:00:00,-7.0,-26.0,-100.00,ENE,58,5.0,12.0,39,0.00,,,0.00,,2013-01-30 04:00:00,
2013-01-29 19:32:00,-7.0,-26.0,-100.00,ENE,58,5.0,12.0,39,0.00,,,0.00,,2013-01-30 04:32:00,
2013-01-29 19:42:00,-7.0,-26.0,-100.00,ENE,58,5.0,12.0,39,0.00,,,0.00,,2013-01-30 04:42:00,
2013-01-29 19:52:00,-7.0,-26.0,-100.00,ENE,58,5.0,12.0,39,0.00,,,0.00,,2013-01-30 04:52:00,
2013-01-29 20:00:00,-7.0,-23.0,-100.00,NE,45,3.0,9.0,45,0.00,,,0.00,,2013-01-30 05:00:00,
2013-01-29 20:32:00,-7.0,-23.0,-100.00,NE,45,3.0,9.0,45,0.00,,,0.00,,2013-01-30 05:32:00,
2013-01-29 20:43:00,-7.0,-23.0,-100.00,NE,45,3.0,9.0,45,0.00,,,0.00,,2013-01-30 05:43:00,
2013-01-29 20:52:00,-7.0,-23.0,-100.00,NE,45,3.0,9.0,45,0.00,,,0.00,,2013-01-30 05:52:00,
2013-01-29 21:00:00,-5.0,-20.0,-100.00,NNE,33,4.0,8.0,48,0.00,,,0.00,,2013-01-30 06:00:00,
2013-01-29 21:32:00,-5.0,-20.0,-100.00,NNE,33,4.0,8.0,48,0.00,,,0.00,,2013-01-30 06:32:00,
2013-01-29 21:42:00,-5.0,-20.0,-100.00,NNE,33,4.0,8.0,48,0.00,,,0.00,,2013-01-30 06:42:00,
2013-01-29 21:52:00,-5.0,-20.0,-100.00,NNE,33,4.0,8.0,48,0.00,,,0.00,,2013-01-30 06:52:00,
2013-01-29 22:00:00,-5.0,-21.0,-100.00,ENE,67,3.0,8.0,46,0.00,,,0.00,,2013-01-30 07:00:00,
2013-01-29 22:32:00,-5.0,-21.0,-100.00,ENE,67,3.0,8.0,46,0.00,,,0.00,,2013-01-30 07:32:00,
2013-01-29 22:42:00,-5.0,-21.0,-100.00,ENE,67,3.0,8.0,46,0.00,,,0.00,,2013-01-30 07:42:00,
2013-01-29 22:52:00,-5.0,-21.0,-100.00,ENE,67,3.0,8.0,46,0.00,,,0.00,,2013-01-30 07:52:00,
2013-01-29 23:00:00,-4.0,-19.0,-100.00,ENE,68,4.0,9.0,47,0.00,,,0.00,,2013-01-30 08:00:00,
2013-01-29 23:32:00,-4.0,-19.0,-100.00,ENE,68,4.0,9.0,47,0.00,,,0.00,,2013-01-30 08:32:00,
2013-01-29 23:42:00,-4.0,-19.0,-100.00,ENE,68,4.0,9.0,47,0.00,,,0.00,,2013-01-30 08:42:00,
2013-01-29 23:52:00,-4.0,-19.0,-100.00,ENE,68,4.0,9.0,47,0.00,,,0.00,,2013-01-30 08:52:00,